Location: Unspecified
(0.0000°N, 0.0000°E)
Time: 11:53:01
(UTC+02:00)

ADEOS II - Visible Passes

Search period start: 30 August 2015 00:00
Search period end: 09 September 2015 00:00
Orbit: 800 x 803 km, 98.3° (Epoch: 29 August)

Date Brightness Start Highest point End Pass type
(mag) Time Alt. Az. Time Alt. Az. Time Alt. Az.
30 Aug 3.1 06:25:49 10° NNE 06:30:46 45° ESE 06:35:49 10° S visible
31 Aug 4.4 06:00:39 10° NE 06:04:33 22° E 06:08:39 10° SSE visible
01 Sep 5.2 05:37:58 10° E 05:38:16 10° E 05:39:04 10° ESE visible
01 Sep 2.3 07:12:56 10° N 07:17:58 47° WNW 07:22:59 10° SSW visible
02 Sep 2.1 06:46:32 10° NNE 06:51:46 84° E 06:57:04 10° S visible
03 Sep 3.4 06:20:44 10° NNE 06:25:35 40° ESE 06:30:31 10° S visible
04 Sep 4.6 05:55:46 10° ENE 05:59:21 20° E 06:03:11 10° SSE visible
04 Sep 3.1 07:34:37 10° NNW 07:39:00 26° W 07:43:15 10° SW visible
05 Sep 2.2 07:07:39 10° N 07:12:46 54° WNW 07:17:53 10° SSW visible
06 Sep 2.3 06:41:21 10° NNE 06:46:35 74° E 06:51:51 10° S visible
07 Sep 3.6 06:15:41 10° NE 06:20:23 35° ESE 06:25:11 10° SSE visible
08 Sep 4.7 05:50:55 10° ENE 05:54:08 17° E 05:57:39 10° SE visible
08 Sep 2.9 07:29:14 10° NNW 07:33:47 29° W 07:38:16 10° SW visible
